When you browse on this site, cookies collect data to enhance your experience and personalize the content and advertising you see.
Visit our Privacy Policy to learn more. By continuing to use the site, you agree to this use of cookies and data.
  • In United Kingdom
  • List of Countries
  • For 7 days
  • Water Temperature
  • Weather Map
  • Weather Widgets
  • user-avatar
    Login

    Hourly Weather Hannover

    Today, 27 January, Monday

    Time Temperature Precipitation Wind Pressure Humidity
    00:00 +1°C° 0 mm 3 mps 755 mmHg 90%
    01:00 +1°C° 0 mm 3 mps 754 mmHg 92%
    02:00 +1°C° 0 mm 3 mps 754 mmHg 91%
    03:00 0°C° 0 mm 4 mps 753 mmHg 91%
    04:00 +1°C° 0 mm 4 mps 753 mmHg 90%
    05:00 +1°C° 0 mm 5 mps 753 mmHg 89%
    06:00 +2°C° 0 mm 5 mps 752 mmHg 89%
    07:00 +2°C° 0 mm 5 mps 752 mmHg 88%
    08:00 +3°C° 0.1 mm 5 mps 751 mmHg 87%
    09:00 +3°C° 0.1 mm 5 mps 751 mmHg 86%
    10:00 +4°C° 0.1 mm 6 mps 751 mmHg 86%
    11:00 +4°C° 0 mm 6 mps 751 mmHg 84%
    12:00 +6°C° 0 mm 5 mps 750 mmHg 82%
    13:00 +6°C° 0 mm 4 mps 750 mmHg 80%
    14:00 +6°C° 0 mm 4 mps 749 mmHg 81%
    15:00 +6°C° 0 mm 4 mps 749 mmHg 82%
    16:00 +6°C° 0 mm 4 mps 748 mmHg 83%
    17:00 +5°C° 0.2 mm 4 mps 748 mmHg 85%
    18:00 +5°C° 0.2 mm 4 mps 747 mmHg 87%
    19:00 +5°C° 0.2 mm 4 mps 747 mmHg 90%
    20:00 +5°C° 0.4 mm 4 mps 746 mmHg 90%
    21:00 +5°C° 0.4 mm 4 mps 746 mmHg 90%
    22:00 +5°C° 0.4 mm 3 mps 745 mmHg 89%
    23:00 +4°C° 0 mm 4 mps 744 mmHg 89%

    Tomorrow, 28 January, Tuesday

    Time Temperature Precipitation Wind Pressure Humidity
    00:00 +4°C° 0 mm 4 mps 743 mmHg 89%
    01:00 +3°C° 0 mm 5 mps 742 mmHg 88%
    02:00 +5°C° 0.3 mm 5 mps 741 mmHg 87%
    03:00 +4°C° 0.3 mm 6 mps 740 mmHg 85%
    04:00 +5°C° 0.3 mm 6 mps 740 mmHg 83%
    05:00 +4°C° 0 mm 6 mps 739 mmHg 84%
    06:00 +5°C° 0 mm 5 mps 739 mmHg 84%
    07:00 +5°C° 0 mm 5 mps 739 mmHg 85%
    08:00 +5°C° 0 mm 5 mps 738 mmHg 82%
    09:00 +5°C° 0 mm 5 mps 737 mmHg 80%
    10:00 +5°C° 0 mm 5 mps 737 mmHg 78%
    11:00 +4°C° 0.7 mm 6 mps 737 mmHg 77%
    12:00 +4°C° 0.7 mm 7 mps 736 mmHg 77%
    13:00 +2°C° 0.7 mm 8 mps 736 mmHg 76%
    14:00 +2°C° 0.3 mm 9 mps 737 mmHg 75%
    15:00 +2°C° 0.3 mm 9 mps 737 mmHg 73%
    16:00 +1°C° 0.3 mm 10 mps 737 mmHg 72%
    17:00 0°C° 0.2 mm 10 mps 738 mmHg 79%
    18:00 0°C° 0.2 mm 10 mps 738 mmHg 86%
    19:00 -2°C° 0.2 mm 10 mps 739 mmHg 94%
    20:00 -2°C° 1 mm 11 mps 739 mmHg 92%
    21:00 -2°C° 1 mm 11 mps 739 mmHg 90%
    22:00 -1°C° 1 mm 11 mps 739 mmHg 89%
    23:00 -1°C° 0.2 mm 11 mps 740 mmHg 84%

    Day after tomorrow, 29 January, Wednesday

    Time Temperature Precipitation Wind Pressure Humidity
    00:00 0°C° 0.2 mm 10 mps 741 mmHg 80%
    01:00 +1°C° 0.2 mm 10 mps 741 mmHg 76%
    02:00 0°C° 0 mm 9 mps 742 mmHg 77%
    03:00 0°C° 0 mm 9 mps 742 mmHg 78%
    04:00 0°C° 0 mm 8 mps 743 mmHg 80%
    05:00 0°C° 0 mm 8 mps 743 mmHg 80%
    06:00 0°C° 0 mm 8 mps 744 mmHg 81%
    07:00 0°C° 0 mm 8 mps 745 mmHg 82%
    08:00 0°C° 0 mm 8 mps 745 mmHg 81%
    09:00 +1°C° 0 mm 8 mps 746 mmHg 80%
    10:00 +1°C° 0 mm 8 mps 746 mmHg 80%
    11:00 +1°C° 0.1 mm 8 mps 746 mmHg 78%
    12:00 +1°C° 0.1 mm 8 mps 747 mmHg 76%
    13:00 +2°C° 0.1 mm 8 mps 747 mmHg 74%
    14:00 +2°C° 0.1 mm 8 mps 748 mmHg 74%
    15:00 +2°C° 0.1 mm 8 mps 748 mmHg 74%
    16:00 +3°C° 0.1 mm 7 mps 749 mmHg 73%
    17:00 +2°C° 0 mm 7 mps 750 mmHg 74%
    18:00 +2°C° 0 mm 6 mps 751 mmHg 75%
    19:00 +1°C° 0 mm 6 mps 751 mmHg 76%
    20:00 +1°C° 0 mm 6 mps 752 mmHg 76%
    21:00 +1°C° 0 mm 6 mps 752 mmHg 76%
    22:00 +1°C° 0 mm 6 mps 753 mmHg 76%
    23:00 +1°C° 0 mm 6 mps 753 mmHg 78%

    30 January, Thursday

    Time Temperature Precipitation Wind Pressure Humidity
    00:00 0°C° 0 mm 5 mps 754 mmHg 81%
    01:00 0°C° 0 mm 5 mps 754 mmHg 83%
    02:00 0°C° 0 mm 5 mps 754 mmHg 83%
    03:00 0°C° 0 mm 5 mps 754 mmHg 84%
    04:00 -1°C° 0 mm 6 mps 753 mmHg 84%
    05:00 -1°C° 0 mm 6 mps 753 mmHg 84%
    06:00 -1°C° 0 mm 6 mps 753 mmHg 84%
    07:00 +1°C° 0 mm 6 mps 753 mmHg 84%
    08:00 +1°C° 0 mm 6 mps 753 mmHg 83%
    09:00 +2°C° 0 mm 7 mps 753 mmHg 81%
    10:00 +2°C° 0 mm 7 mps 753 mmHg 80%
    11:00 +3°C° 0 mm 7 mps 753 mmHg 78%
    12:00 +3°C° 0 mm 7 mps 753 mmHg 75%
    13:00 +4°C° 0 mm 6 mps 752 mmHg 73%
    14:00 +4°C° 0 mm 6 mps 752 mmHg 72%
    15:00 +5°C° 0 mm 5 mps 751 mmHg 72%
    16:00 +5°C° 0 mm 4 mps 751 mmHg 72%
    17:00 +4°C° 0 mm 4 mps 750 mmHg 75%
    18:00 +4°C° 0 mm 4 mps 750 mmHg 78%
    19:00 +3°C° 0 mm 4 mps 750 mmHg 81%
    20:00 +3°C° 0 mm 4 mps 749 mmHg 80%
    21:00 +3°C° 0 mm 4 mps 749 mmHg 79%
    22:00 +3°C° 0 mm 4 mps 748 mmHg 78%
    23:00 +3°C° 0 mm 5 mps 748 mmHg 80%

    31 January, Friday

    Time Temperature Precipitation Wind Pressure Humidity
    00:00 +3°C° 0 mm 6 mps 747 mmHg 82%
    01:00 +4°C° 0 mm 6 mps 747 mmHg 84%
    02:00 +5°C° 0 mm 6 mps 747 mmHg 86%
    03:00 +6°C° 0 mm 7 mps 746 mmHg 88%
    04:00 +8°C° 0 mm 7 mps 746 mmHg 90%
    05:00 +8°C° 0 mm 7 mps 746 mmHg 89%
    06:00 +8°C° 0 mm 7 mps 747 mmHg 87%
    07:00 +8°C° 0 mm 7 mps 747 mmHg 86%
    08:00 +8°C° 0 mm 7 mps 747 mmHg 84%
    09:00 +8°C° 0 mm 7 mps 748 mmHg 83%
    10:00 +8°C° 0 mm 7 mps 748 mmHg 82%
    11:00 +9°C° 0 mm 7 mps 748 mmHg 80%
    12:00 +9°C° 0 mm 7 mps 749 mmHg 78%
    13:00 +9°C° 0 mm 7 mps 749 mmHg 76%
    14:00 +9°C° 0 mm 7 mps 749 mmHg 77%
    15:00 +9°C° 0 mm 6 mps 749 mmHg 79%
    16:00 +9°C° 0 mm 6 mps 749 mmHg 81%
    17:00 +9°C° 0 mm 6 mps 749 mmHg 81%
    18:00 +9°C° 0 mm 6 mps 749 mmHg 81%
    19:00 +9°C° 0 mm 6 mps 750 mmHg 81%
    20:00 +8°C° 0 mm 6 mps 750 mmHg 81%
    21:00 +8°C° 0 mm 6 mps 749 mmHg 82%
    22:00 +8°C° 0 mm 6 mps 749 mmHg 82%
    23:00 +8°C° 0.2 mm 6 mps 749 mmHg 84%

    1 February, Saturday

    Time Temperature Precipitation Wind Pressure Humidity
    00:00 +9°C° 0.2 mm 6 mps 749 mmHg 86%
    01:00 +9°C° 0.2 mm 6 mps 749 mmHg 88%
    02:00 +9°C° 0.2 mm 6 mps 748 mmHg 89%
    03:00 +9°C° 0.2 mm 6 mps 748 mmHg 89%
    04:00 +9°C° 0.2 mm 6 mps 748 mmHg 90%
    05:00 +9°C° 0.2 mm 6 mps 747 mmHg 90%
    06:00 +9°C° 0.2 mm 5 mps 747 mmHg 90%
    07:00 +10°C° 0.2 mm 5 mps 747 mmHg 90%
    08:00 +10°C° 0.1 mm 5 mps 746 mmHg 89%
    09:00 +10°C° 0.1 mm 5 mps 746 mmHg 88%
    10:00 +10°C° 0.1 mm 6 mps 746 mmHg 87%
    11:00 +11°C° 0.3 mm 6 mps 746 mmHg 83%
    12:00 +11°C° 0.3 mm 7 mps 746 mmHg 78%
    13:00 +12°C° 0.3 mm 8 mps 746 mmHg 74%
    14:00 +11°C° 0.4 mm 8 mps 746 mmHg 74%
    15:00 +10°C° 0.4 mm 9 mps 746 mmHg 75%
    16:00 +8°C° 0.4 mm 9 mps 746 mmHg 76%
    17:00 +8°C° 0.1 mm 9 mps 747 mmHg 75%
    18:00 +7°C° 0.1 mm 8 mps 748 mmHg 74%
    19:00 +6°C° 0.1 mm 8 mps 749 mmHg 73%
    20:00 +6°C° 0.1 mm 8 mps 750 mmHg 71%
    21:00 +6°C° 0.1 mm 8 mps 750 mmHg 70%
    22:00 +5°C° 0.1 mm 8 mps 751 mmHg 68%
    23:00 +5°C° 0.1 mm 8 mps 751 mmHg 69%
    Show more